Location: Poughquag
(41.6090°N, 73.6820°W)
Time: 03:16:16
(UTC-04:00)

Envisat - Visible Passes

Search period start: 26 October 2020 00:00
Search period end: 04 November 2020 23:00
Orbit: 764 x 766 km, 98.1° (Epoch: 25 October)

Date Brightness Start Highest point End Pass type
(mag) Time Alt. Az. Time Alt. Az. Time Alt. Az.
27 Oct 4.6 06:23:02 10° NNE 06:27:49 40° E 06:32:34 10° SSE visible
27 Oct 6.0 19:18:25 10° SW 19:21:50 18° W 19:25:15 10° NW visible
28 Oct 6.0 05:47:16 10° NE 05:50:44 18° E 05:54:12 10° SE visible
28 Oct 4.6 18:40:01 10° SSW 18:44:45 39° W 18:49:31 10° NNW visible
29 Oct 3.4 06:48:13 10° NNE 06:53:19 71° ESE 06:58:23 10° S visible
30 Oct 5.0 06:11:51 10° NNE 06:16:23 32° E 06:20:52 10° SSE visible
30 Oct 5.7 19:06:24 10° SW 19:10:21 23° W 19:14:20 10° NW visible
31 Oct 6.3 05:36:33 10° ENE 05:39:15 14° E 05:41:55 10° ESE visible
31 Oct 4.1 18:28:25 10° S 18:33:19 50° W 18:38:17 10° NNW visible
01 Nov 3.9 05:36:55 10° NNE 05:41:56 56° E 05:46:54 10° S visible
01 Nov 6.3 18:33:51 10° WSW 18:36:03 13° W 18:38:16 10° WNW visible
02 Nov 5.4 05:00:46 10° NE 05:04:56 25° E 05:09:05 10° SSE visible
02 Nov 5.2 17:54:32 10° SSW 17:58:53 29° W 18:03:16 10° NW visible
03 Nov 6.5 04:26:25 10° ENE 04:27:44 11° E 04:29:02 10° ESE visible
03 Nov 3.0 06:02:16 10° NNE 06:07:23 84° WNW 06:12:27 10° SSW visible
03 Nov 3.6 17:16:54 10° S 17:21:56 64° W 17:26:59 10° NNW visible
04 Nov 4.4 05:25:40 10° NNE 05:30:31 43° E 05:35:20 10° S visible
04 Nov 6.1 18:21:24 10° SW 18:24:33 16° W 18:27:43 10° NW visible
